User: anonymous
Location: Caltech
(34.1382°N, 118.1253°W)
Time: 06:46:51
(UTC-07:00)
Language:

Iridium 21 - Orbit

View from above orbital plane
View from above orbital plane
View from above satellite
View from above satellite

Ground track
Ground track

The orbit data is extracted from the following two-line orbital elements,

1 25778U 99032B   14109.47301284  .00000263  00000-0  86873-4 0  6956
2 25778 086.3979 346.6372 0001860 106.7873 014.4944 14.34210510782601
Epoch (UTC): 19 April 2014 11:21:08
Eccentricity: 0.0001860
inclination: 86.3979°
perigee height: 776 km
apogee height: 779 km
right ascension of ascending node: 346.6372°
argument of perigee: 106.7873°
revolutions per day: 14.34210510
mean anomaly at epoch: 14.4944°
orbit number at epoch: 78260

The dashed part of the orbit path shows where the satellite is in the earth's shadow,  

DLR